COSMOS 2600

Last updated on Sun Mar 08 2026 00:02:12 GMT+0000 (Coordinated Universal Time)

1 67674U 26023A 26066.31169616 .00099736 00000+0 45216-3 0 9990 2 67674 96.6429 142.0310 0002055 341.6638 18.4559 15.83649775 4676
UTC large
Height (km)
Speed (km/s)
/
Latitude / Longitude
Inclination (degrees)
Orbital Period (minutes)
Azimuth
Elevation
Range (km)
Doppler Factor

Next 0 passes for location: London (51.5072 / 0.1276)

Sorry there are no passes over London.